Location: Minneapolis
(45.0000°N, 93.0000°W)
Time: 21:42:35

Envisat - Pass Details

Date: 17 March 2018
Orbit: 764 x 766 km, 98.2° (Epoch: 23 March)

Event Time Altitude Azimuth Distance (km) Brightness Sun altitude
Rises 20:42:50 0° 171° (S) 3,215 6.0 -15.2°
Reaches altitude 10° 20:45:08 10° 173° (S) 2,293 5.3 -15.6°
Maximum altitude 20:50:11 71° 257° (WSW) 809 3.2 -16.4°
Drops below altitude 10° 20:55:16 10° 343° (NNW) 2,310 5.9 -17.3°
Sets 20:57:36 0° 345° (NNW) 3,240 6.7 -17.7°
